Flag Weather past 2 weeks in Germering, Bavaria, Germany

Now
36 °F

Fog.


Feels Like: 36 °F
Forecast: 35 / 46 °F
Wind: No wind

Location: Oberpfaffenhofen

Current Time: Nov 27, 2014 at 9:55:58 PM

Latest Report: Nov 27, 2014 at 7:50 PM


Visibility: 1 mi

Pressure: 29.80 "Hg

Humidity: 100%

Dew point: 36 °F

Location of GermeringLocation

Historic Weather in Germering — Graph

°F

Germering temperature yesterday

Maximum temperature yesterday: 37 °F (at 11:20 AM)
Minimum temperature yesterday: 36 °F (at 6:50 AM)
Average temperature yesterday: 37 °F

Past Weeks' High & Low Weather Summary

 TemperatureHumidityPressure
High86 °F (Nov 15, 8:20 AM)100% (Nov 13, 8:20 AM)30.27 "Hg (Nov 13, 8:20 AM)
Low28 °F (Nov 17, 7:20 AM)17% (Nov 15, 8:20 AM)29.65 "Hg (Nov 16, 11:20 AM)
Average41 °F91%29.97 "Hg
* Reported Nov 13 6:50 AM — Nov 27 7:50 PM, Germering, Weather by CustomWeather, © 2014

Note: Actual official high and low records may vary slightly from our data, if they occured in-between our weather recording intervals... More about our weather records

Advertising

Germering weather history for previous 24 hours

 ConditionsComfort  
Time TempWeatherWind HumidityBarometerVisibility
7:50 PM
Nov 27
36 °FFog.No wind100%29.80 "Hg1 mi
7:20 PM36 °FFog.5 mph100%29.80 "Hg1 mi
6:50 PM36 °FFog.6 mph100%29.80 "Hg1 mi
6:20 PM36 °FFog.3 mph100%29.80 "Hg1 mi
5:50 PM36 °FFog.3 mph100%29.80 "Hg1 mi
5:20 PM36 °FFog.3 mph100%29.80 "Hg1 mi
4:50 PM36 °FFog.5 mph100%29.80 "Hg1 mi
4:20 PM36 °FFog.5 mph100%29.77 "Hg1 mi
3:50 PM36 °FFog.3 mph100%29.77 "Hg1 mi
3:20 PM37 °FFog.5 mph93%29.77 "Hg1 mi
2:50 PM37 °FFog.5 mph93%29.77 "Hg1 mi
2:20 PM37 °FFog.7 mph93%29.77 "Hg1 mi
1:50 PM37 °FFog.7 mph93%29.77 "Hg1 mi
1:20 PM36 °FFog.7 mph100%29.77 "Hg1 mi
12:50 PM37 °FFog.8 mph93%29.80 "Hg1 mi
12:20 PM37 °FFog.8 mph93%29.80 "Hg1 mi
11:50 AM37 °FFog.7 mph93%29.80 "Hg1 mi
11:20 AM37 °FDense fog.3 mph93%29.80 "Hg0 mi
10:50 AM36 °FFog.6 mph100%29.83 "Hg0 mi
10:20 AM36 °FFog.6 mph100%29.83 "Hg0 mi
9:20 AM36 °FFog.6 mph100%29.83 "Hg0 mi
8:50 AM36 °FFog.N/A100%29.83 "Hg1 mi
8:20 AM36 °FFog.N/A100%29.83 "Hg1 mi
7:50 AM36 °FFog.5 mph100%29.83 "Hg1 mi
7:20 AM36 °FFog.3 mph100%29.83 "Hg1 mi
6:50 AM36 °FFog.3 mph100%29.83 "Hg1 mi
Weather by CustomWeather, © 2014

See weather overviewHow to use our weather pages